Location: Unspecified
(0.0000°N, 0.0000°E)
Time: 01:28:43
(UTC+02:00)

NOSS 3-3 (A) - Visible Passes

Search period start: 23 May 2018 00:00
Search period end: 02 June 2018 00:00
Orbit: 884 x 1328 km, 63.4° (Epoch: 19 May)

Date Brightness Start Highest point End Pass type
(mag) Time Alt. Az. Time Alt. Az. Time Alt. Az.
24 May 6.7 23:29:53 10° N 23:30:48 14° N 23:30:48 14° N visible
25 May 6.5 22:46:24 10° NNE 22:47:48 14° NNE 22:47:48 14° NNE visible
26 May 6.6 22:04:31 10° NE 22:04:51 11° NE 22:04:51 11° NE visible
26 May 6.6 23:50:43 10° NNW 23:52:20 17° NNW 23:52:20 17° NNW visible
27 May 6.0 23:06:10 10° NNW 23:09:26 27° N 23:09:26 27° N visible
28 May 5.8 22:22:13 10° N 22:26:37 28° NNE 22:26:37 28° NNE visible
29 May 6.9 00:13:09 10° NW 00:14:06 13° NW 00:14:06 13° NW visible
29 May 6.0 21:39:10 10° NNE 21:43:52 20° ENE 21:43:52 20° ENE visible
29 May 6.1 23:27:34 10° NW 23:31:20 30° NW 23:31:20 30° NW visible
30 May 5.1 22:42:40 10° NNW 22:48:38 54° NNW 22:48:38 54° NNW visible
31 May 4.8 21:58:20 10° N 22:06:00 50° ENE 22:06:00 50° ENE visible
31 May 6.6 23:50:49 10° WNW 23:53:30 18° W 23:53:30 18° W visible
01 Jun 5.5 21:14:41 10° N 21:21:27 29° ENE 21:23:26 26° E visible
01 Jun 5.6 23:04:40 10° NW 23:10:56 39° W 23:10:56 39° W visible
